Terminal Aerodrome Forecast
Issued by NWS

Home | Current Version | Previous Version | Text Only | Print | Product List | Glossary On
Versions: 1 2 3 4 5 6 7 8 9 10 11 12 13 14 15 16 17 18
000
FTUS46 KSGX 041731
TAFSNA
TAF
KSNA 041731Z 0418/0518 VRB04KT P6SM BKN014
     FM041900 23008KT P6SM SCT015
     FM050000 VRB04KT P6SM FEW012
     FM050600 VRB03KT P6SM OVC012=

USA.gov is the U.S. government's official web portal to all federal, state and local government web resources and services.